GW6359 Weather Reports


time (UTC)temp
C
wind
direction
speed
KPH
gust
KPH
rain 1hr
cm
rain 24hr
cm
rain mn
cm
humidity
%
barometer
mb
20260506185503 24 311 4.8 9.7 0.00 0.08 0.08 69 1010.4
20260506185003 23 307 4.8 8.0 0.00 0.08 0.08 70 1010.6
20260506184503 23 333 4.8 11.3 0.00 0.08 0.08 71 1010.5
20260506184003 23 358 4.8 11.3 0.00 0.08 0.08 71 1010.5
20260506183503 23 355 3.2 9.7 0.00 0.08 0.08 71 1010.6
20260506183003 22 66 3.2 9.7 0.00 0.08 0.08 71 1010.6
20260506182503 22 111 3.2 12.9 0.00 0.08 0.08 72 1010.7
20260506182003 22 56 3.2 12.9 0.00 0.08 0.08 72 1010.6
20260506181717 22 49 3.2 12.9 0.00 0.08 0.08 72 1010.7
20260506181003 21 111 3.2 9.7 0.00 0.08 0.08 74 1010.5
20260506180503 21 121 3.2 6.4 0.00 0.08 0.08 72 1010.6
20260506180218 22 97 3.2 8.0 0.00 0.08 0.08 73 1010.4
20260506175503 21 33 3.2 8.0 0.00 0.08 0.08 76 1010.6
20260506175003 21 70 3.2 9.7 0.00 0.08 0.08 77 1010.6
20260506174503 21 82 4.8 9.7 0.00 0.08 0.08 79 1010.6
20260506174218 20 86 4.8 9.7 0.00 0.08 0.08 78 1010.7
20260506173503 20 28 4.8 9.7 0.00 0.08 0.08 81 1010.7
20260506173003 20 55 4.8 9.7 0.00 0.08 0.08 81 1010.8
20260506172503 20 116 6.4 9.7 0.00 0.08 0.08 83 1010.9
20260506172003 19 71 4.8 11.3 0.00 0.08 0.08 82 1010.8
20260506171503 19 77 3.2 12.9 0.00 0.08 0.08 84 1010.9
20260506171003 18 15 4.8 12.9 0.00 0.08 0.08 86 1010.9
20260506170503 18 357 4.8 12.9 0.00 0.08 0.08 87 1010.7
20260506170003 18 31 4.8 11.3 0.00 0.08 0.08 87 1011.1
20260506165503 17 53 4.8 12.9 0.03 0.08 0.08 90 1011.1
20260506165003 17 40 4.8 16.1 0.03 0.08 0.08 93 1011.2
20260506164503 17 20 4.8 16.1 0.03 0.08 0.08 93 1011.4
20260506164003 17 29 4.8 11.3 0.03 0.08 0.08 92 1011.1
20260506163503 17 11 4.8 11.3 0.03 0.08 0.08 92 1011.7
20260506163003 17 340 6.4 14.5 0.05 0.08 0.08 92 1012.0
20260506162503 17 356 6.4 14.5 0.08 0.08 0.08 91 1012.0
20260506162003 18 2 6.4 19.3 0.08 0.08 0.08 91 1011.9
20260506161716 18 4 6.4 19.3 0.08 0.08 0.08 91 1012.3
20260506161003 18 360 8.0 16.1 0.08 0.08 0.08 90 1011.8
20260506160503 18 354 8.0 19.3 0.08 0.08 0.08 89 1011.9
20260506160003 20 360 6.4 19.3 0.08 0.08 0.08 89 1012.0
20260506155503 20 349 4.8 14.5 0.05 0.05 0.05 87 1011.9
20260506155003 21 355 8.0 14.5 0.05 0.05 0.05 86 1011.7
20260506154503 22 7 8.0 14.5 0.05 0.05 0.05 83 1011.5
20260506154217 24 1 6.4 14.5 0.05 0.05 0.05 89 1011.0
20260506153503 24 354 1.6 6.4 0.05 0.05 0.05 92 1010.9
20260506153003 24 109 0.0 6.4 0.03 0.03 0.03 91 1010.9
20260506152503 24 130 1.6 6.4 0.00 0.00 0.00 90 1010.4
20260506152003 24 116 1.6 4.8 0.00 0.00 0.00 90 1010.1
20260506151718 24 124 1.6 4.8 0.00 0.00 0.00 89 1010.4
20260506151003 25 133 0.0 3.2 0.00 0.00 0.00 89 1010.1
20260506150503 24 157 0.0 3.2 0.00 0.00 0.00 88 1010.1
20260506150003 24 151 0.0 4.8 0.00 0.00 0.00 88 1009.9
20260506145503 25 152 0.0 4.8 0.00 0.00 0.00 88 1009.7
20260506145217 25 172 0.0 3.2 0.00 0.00 0.00 87 1009.7
20260506144503 25 191 0.0 4.8 0.00 0.00 0.00 88 1009.6
20260506144003 25 174 1.6 4.8 0.00 0.00 0.00 87 1009.5
20260506143503 25 167 1.6 3.2 0.00 0.00 0.00 88 1009.4
20260506143004 25 114 1.6 8.0 0.00 0.00 0.00 88 1009.2
20260506142503 24 127 3.2 8.0 0.00 0.00 0.00 88 1008.9
20260506142003 25 116 3.2 8.0 0.00 0.00 0.00 88 1009.0
20260506141503 25 2 3.2 6.4 0.00 0.00 0.00 88 1009.0
20260506141003 25 333 1.6 6.4 0.00 0.00 0.00 87 1009.5
20260506140503 25 242 0.0 3.2 0.00 0.00 0.00 88 1009.5
20260506140216 24 234 0.0 4.8 0.00 0.00 0.00 88 1009.3
20260506135503 24 124 1.6 6.4 0.00 0.00 0.00 89 1009.0
20260506135003 24 145 1.6 6.4 0.00 0.00 0.00 89 1008.8
20260506134503 24 186 3.2 6.4 0.00 0.00 0.00 90 1008.6
20260506134004 24 311 1.6 6.4 0.00 0.00 0.00 91 1008.7
20260506133504 23 157 1.6 6.4 0.00 0.00 0.00 91 1008.5
20260506133003 23 168 1.6 6.4 0.00 0.00 0.00 91 1008.6
20260506132503 23 173 1.6 6.4 0.00 0.00 0.00 91 1008.6
20260506132003 23 192 1.6 6.4 0.00 0.00 0.00 91 1008.6
20260506131503 23 233 1.6 4.8 0.00 0.00 0.00 91 1008.6
20260506131003 23 198 1.6 4.8 0.00 0.00 0.00 91 1008.5
20260506130717 23 212 1.6 4.8 0.00 0.00 0.00 91 1008.5
20260506130003 23 230 0.0 4.8 0.00 0.00 0.00 92 1008.3
20260506125503 23 258 0.0 4.8 0.00 0.00 0.00 92 1008.4
20260506125003 23 154 0.0 3.2 0.00 0.00 0.00 93 1008.4
20260506124503 23 155 0.0 3.2 0.00 0.00 0.00 93 1008.4
20260506124003 23 228 0.0 3.2 0.00 0.00 0.00 93 1008.4
20260506123503 23 193 1.6 6.4 0.00 0.00 0.00 93 1008.3
20260506123003 23 187 3.2 6.4 0.00 0.00 0.00 93 1008.4
20260506122717 23 170 3.2 6.4 0.00 0.00 0.00 93 1008.4
20260506122003 23 138 1.6 4.8 0.00 0.00 0.00 93 1008.5
20260506121717 23 179 1.6 6.4 0.00 0.00 0.00 93 1008.5
20260506121003 23 200 1.6 6.4 0.00 0.00 0.00 93 1008.4
20260506120503 23 25 3.2 6.4 0.00 0.00 0.00 93 1008.2
20260506120003 23 11 3.2 6.4 0.00 0.00 0.00 92 1008.3
20260506115503 23 335 3.2 6.4 0.00 0.00 0.00 92 1008.1
20260506115218 23 306 1.6 4.8 0.00 0.00 0.00 92 1008.1
20260506114503 23 218 1.6 9.7 0.00 0.00 0.00 91 1008.3
20260506114003 23 192 3.2 9.7 0.00 0.00 0.00 91 1008.3
20260506113503 23 205 3.2 8.0 0.00 0.00 0.00 91 1008.1
20260506113003 23 182 1.6 6.4 0.00 0.00 0.00 91 1008.1
20260506112717 23 171 1.6 8.0 0.00 0.00 0.00 91 1008.2
20260506112003 23 183 3.2 8.0 0.00 0.00 0.00 91 1008.2
20260506111503 23 223 1.6 4.8 0.00 0.00 0.00 91 1008.0
20260506111003 23 204 1.6 4.8 0.00 0.00 0.00 91 1008.0
20260506110503 23 350 1.6 4.8 0.00 0.00 0.00 90 1008.2
20260506110003 23 340 1.6 6.4 0.00 0.00 0.00 90 1008.3
20260506105503 23 318 3.2 6.4 0.00 0.00 0.00 90 1008.0
20260506105003 23 283 3.2 6.4 0.00 0.00 0.00 91 1008.0
20260506104716 23 289 1.6 4.8 0.00 0.00 0.00 91 1008.1
20260506104003 23 133 0.0 4.8 0.00 0.00 0.00 91 1008.1
20260506103716 23 135 0.0 4.8 0.00 0.00 0.00 91 1008.0
20260506103217 23 179 1.6 4.8 0.00 0.00 0.00 91 1007.8
20260506102503 23 188 0.0 3.2 0.00 0.00 0.00 91 1007.9
20260506102003 23 196 1.6 3.2 0.00 0.00 0.00 91 1007.7
20260506101503 23 206 1.6 4.8 0.00 0.00 0.00 91 1007.7
20260506101003 23 258 1.6 4.8 0.00 0.00 0.00 91 1007.7
20260506100503 23 255 1.6 4.8 0.00 0.00 0.00 91 1007.7
20260506100003 23 222 0.0 6.4 0.00 0.00 0.00 91 1007.6
20260506095503 23 208 1.6 6.4 0.00 0.00 0.00 90 1007.5
20260506095003 23 199 1.6 8.0 0.00 0.00 0.00 90 1007.5
20260506094503 23 191 1.6 8.0 0.00 0.00 0.00 90 1007.3
20260506094003 23 178 1.6 6.4 0.00 0.00 0.00 90 1007.3
20260506093718 23 187 1.6 6.4 0.00 0.00 0.00 90 1007.2
20260506093217 23 213 1.6 6.4 0.00 0.00 0.00 90 1007.3
20260506092503 23 199 1.6 6.4 0.00 0.00 0.00 90 1007.0
20260506092003 23 195 1.6 6.4 0.00 0.00 0.00 91 1007.1
20260506091503 23 206 1.6 6.4 0.00 0.00 0.00 90 1006.9
20260506091003 23 200 1.6 8.0 0.00 0.00 0.00 90 1006.9
20260506090503 23 197 1.6 8.0 0.00 0.00 0.00 90 1006.9
20260506090217 23 204 3.2 8.0 0.00 0.00 0.00 90 1006.8
20260506085503 23 214 3.2 9.7 0.00 0.00 0.00 90 1006.8
20260506085003 23 210 1.6 9.7 0.00 0.00 0.00 90 1007.1
20260506084718 23 198 1.6 9.7 0.00 0.00 0.00 90 1006.9
20260506084003 23 207 3.2 9.7 0.00 0.00 0.00 90 1007.0
20260506083503 23 190 1.6 8.0 0.00 0.00 0.00 90 1007.1
20260506083217 23 201 1.6 8.0 0.00 0.00 0.00 90 1007.1
20260506082503 23 178 1.6 9.7 0.00 0.00 0.00 90 1007.0
20260506082003 23 174 1.6 9.7 0.00 0.00 0.00 90 1006.9
20260506081503 23 195 1.6 9.7 0.00 0.00 0.00 90 1007.1
20260506081003 23 195 1.6 11.3 0.00 0.00 0.00 90 1007.0
20260506080503 23 184 3.2 11.3 0.00 0.00 0.00 90 1007.0
20260506073503 24 199 3.2 12.9 0.00 0.00 0.00 89 1007.2
20260506073003 24 196 3.2 12.9 0.00 0.00 0.00 89 1007.3
20260506072503 24 196 3.2 11.3 0.00 0.00 0.00 90 1007.4
20260506072218 24 197 3.2 11.3 0.00 0.00 0.00 90 1007.3
20260506071503 23 189 3.2 11.3 0.00 0.00 0.00 90 1007.5
20260506071218 23 186 3.2 11.3 0.00 0.00 0.00 90 1007.4
20260506070503 23 194 3.2 8.0 0.00 0.00 0.00 90 1007.5
20260506062503 24 203 3.2 12.9 0.00 0.00 0.00 89 1007.5
20260506062003 24 196 3.2 11.3 0.00 0.00 0.00 89 1007.7
20260506061503 24 215 3.2 11.3 0.00 0.00 0.00 89 1007.4
20260506061003 24 193 4.8 16.1 0.00 0.00 0.00 89 1007.4
20260506060503 24 186 3.2 16.1 0.00 0.00 0.00 89 1007.6
20260506051217 24 162 3.2 11.3 0.00 0.00 0.00 89 1007.5
20260506050503 24 207 3.2 11.3 0.00 0.00 0.00 89 1007.6
20260506045003 24 200 1.6 8.0 0.00 0.00 0.00 88 1007.6
20260506044503 24 199 3.2 16.1 0.00 0.00 0.00 88 1007.8
20260506044217 24 198 3.2 16.1 0.00 0.00 0.00 87 1007.6
20260506043503 25 182 3.2 9.7 0.00 0.00 0.00 87 1007.8
20260506043003 25 190 1.6 6.4 0.00 0.00 0.00 87 1007.5
20260506042503 25 187 1.6 8.0 0.00 0.00 0.00 87 1007.5
20260506042003 25 181 1.6 8.0 0.00 0.00 0.00 87 1007.3
20260506041503 25 182 1.6 9.7 0.00 0.00 0.00 87 1007.3
20260506041003 25 189 1.6 9.7 0.00 0.00 0.00 87 1007.5
20260506040718 25 193 3.2 9.7 0.00 0.00 0.00 87 1007.3
20260506040003 25 179 1.6 6.4 0.00 0.00 0.00 87 1007.2
20260506035503 25 179 1.6 8.0 0.00 0.00 0.00 87 1007.2
20260506035003 25 183 1.6 8.0 0.00 0.00 0.00 87 1007.0
20260506034503 25 198 1.6 11.3 0.00 0.00 0.00 87 1007.1
20260506034003 25 203 3.2 11.3 0.00 0.00 0.00 86 1007.1
20260506033503 25 198 3.2 9.7 0.00 0.00 0.00 86 1007.0
20260506033003 25 178 1.6 9.7 0.00 0.00 0.00 86 1007.1
20260506032718 25 170 1.6 8.0 0.00 0.00 0.00 86 1006.9
20260506032003 25 202 3.2 6.4 0.00 0.00 0.00 86 1006.7
20260506031503 25 197 3.2 9.7 0.00 0.00 0.00 85 1006.8
20260506031217 25 186 3.2 9.7 0.00 0.00 0.00 85 1006.9
20260506030717 25 182 1.6 9.7 0.00 0.00 0.00 85 1006.6
20260506030003 25 183 3.2 9.7 0.00 0.00 0.00 85 1006.4
20260506025717 25 188 3.2 9.7 0.00 0.00 0.00 85 1006.4
20260506025003 25 210 3.2 9.7 0.00 0.00 0.00 84 1006.4
20260506024503 25 205 3.2 9.7 0.00 0.00 0.00 84 1006.3
20260506024003 25 189 1.6 8.0 0.00 0.00 0.00 84 1006.3
20260506023717 25 199 3.2 6.4 0.00 0.00 0.00 84 1006.3
20260506023003 25 211 1.6 6.4 0.00 0.00 0.00 83 1006.0
20260506022503 25 200 0.0 6.4 0.00 0.00 0.00 82 1005.8
20260506022003 25 186 0.0 6.4 0.00 0.00 0.00 82 1005.8
20260506021503 26 189 1.6 4.8 0.00 0.00 0.00 81 1005.8
20260506021003 26 202 1.6 4.8 0.00 0.00 0.00 81 1005.7
20260506020717 26 213 1.6 4.8 0.00 0.00 0.00 80 1005.6
20260506020003 26 200 1.6 6.4 0.00 0.00 0.00 80 1005.4
20260506015503 26 193 1.6 6.4 0.00 0.00 0.00 80 1005.4
20260506015003 26 194 1.6 6.4 0.00 0.00 0.00 79 1005.3
20260506014717 26 194 1.6 6.4 0.00 0.00 0.00 79 1005.4
20260506014003 26 198 1.6 4.8 0.00 0.00 0.00 79 1005.4
20260506013503 26 207 1.6 4.8 0.00 0.00 0.00 79 1005.3
20260506013003 26 200 1.6 3.2 0.00 0.00 0.00 78 1005.3
20260506012503 26 209 0.0 6.4 0.00 0.00 0.00 78 1005.2
20260506012003 26 204 0.0 6.4 0.00 0.00 0.00 77 1005.3
20260506011503 27 209 0.0 3.2 0.00 0.00 0.00 77 1005.5
20260506011218 27 209 0.0 3.2 0.00 0.00 0.00 76 1005.5
20260506010717 27 211 0.0 3.2 0.00 0.00 0.00 76 1005.5
20260506010003 27 208 1.6 6.4 0.00 0.00 0.00 75 1005.3
20260506005503 27 208 1.6 6.4 0.00 0.00 0.00 74 1005.3
20260506005003 27 222 1.6 3.2 0.00 0.00 0.00 74 1005.5
20260506004504 27 224 0.0 4.8 0.00 0.00 0.00 74 1005.3
20260506004003 27 208 1.6 4.8 0.00 0.00 0.00 73 1005.4
20260506003503 27 201 3.2 6.4 0.00 0.00 0.00 73 1005.2
20260506003217 27 201 1.6 6.4 0.00 0.00 0.00 73 1005.3
20260506002717 27 197 1.6 6.4 0.00 0.00 0.00 73 1005.0
20260506002003 28 209 1.6 6.4 0.00 0.00 0.00 73 1005.0
20260506001503 28 209 1.6 6.4 0.00 0.00 0.00 73 1005.2
20260506001003 28 204 1.6 8.0 0.00 0.00 0.00 72 1004.9
20260506000503 28 218 1.6 8.0 0.00 0.00 0.00 72 1005.2
20260506000003 28 220 1.6 6.4 0.00 0.00 0.00 72 1004.9
20260505235716 28 217 1.6 6.4 0.00 0.00 0.00 72 1005.0
20260505235003 28 196 1.6 9.7 0.00 0.00 0.00 72 1004.9
20260505234503 28 200 1.6 9.7 0.00 0.00 0.00 71 1004.9
20260505234003 28 171 1.6 6.4 0.00 0.00 0.00 71 1004.6
20260505233503 28 166 1.6 6.4 0.00 0.00 0.00 71 1004.9
20260505233003 28 205 1.6 9.7 0.00 0.00 0.00 70 1004.7
20260505232503 28 209 1.6 9.7 0.00 0.00 0.00 70 1004.7
20260505232218 28 208 1.6 9.7 0.00 0.00 0.00 70 1004.9
20260505231503 28 224 1.6 9.7 0.00 0.00 0.00 68 1004.7
20260505231003 28 233 3.2 8.0 0.00 0.00 0.00 69 1004.9
20260505230503 28 248 3.2 8.0 0.00 0.00 0.00 69 1004.4
20260505230003 28 236 3.2 12.9 0.00 0.00 0.00 69 1004.6
20260505225503 28 204 3.2 12.9 0.00 0.00 0.00 69 1004.6
20260505225003 28 186 3.2 9.7 0.00 0.00 0.00 69 1004.5
20260505224503 28 206 3.2 11.3 0.00 0.00 0.00 69 1004.6
20260505224003 28 203 4.8 11.3 0.00 0.00 0.00 69 1004.5
20260505223503 28 210 4.8 11.3 0.00 0.00 0.00 67 1004.6
20260505223003 29 207 3.2 9.7 0.00 0.00 0.00 67 1004.5
20260505222503 28 214 3.2 11.3 0.00 0.00 0.00 67 1004.5
20260505222003 28 235 3.2 11.3 0.00 0.00 0.00 66 1004.4
20260505221718 29 227 1.6 11.3 0.00 0.00 0.00 66 1004.5
20260505221003 29 211 4.8 12.9 0.00 0.00 0.00 65 1004.6
20260505220503 29 210 3.2 12.9 0.00 0.00 0.00 65 1004.7
20260505220003 29 214 3.2 12.9 0.00 0.00 0.00 65 1004.9
20260505215503 29 210 3.2 9.7 0.00 0.00 0.00 66 1005.0
20260505215003 28 203 3.2 9.7 0.00 0.00 0.00 66 1005.2
20260505214503 29 201 3.2 16.1 0.00 0.00 0.00 67 1005.0
20260505214003 28 178 3.2 16.1 0.00 0.00 0.00 67 1005.3
20260505213503 29 188 3.2 16.1 0.00 0.00 0.00 66 1005.2
20260505213003 30 215 3.2 11.3 0.00 0.00 0.00 65 1005.3
20260505212503 29 220 3.2 11.3 0.00 0.00 0.00 65 1005.5
20260505212003 29 231 3.2 17.7 0.00 0.00 0.00 64 1005.2
20260505211503 29 233 4.8 17.7 0.00 0.00 0.00 64 1005.4
20260505211003 28 202 4.8 22.5 0.00 0.00 0.00 67 1005.4
20260505210503 28 200 4.8 22.5 0.00 0.00 0.00 66 1005.4
20260505210003 28 213 4.8 9.7 0.00 0.00 0.00 67 1005.4
20260505205503 28 225 3.2 9.7 0.00 0.00 0.00 67 1005.6
20260505205218 28 235 3.2 9.7 0.00 0.00 0.00 68 1005.5
20260505204503 28 236 3.2 11.3 0.00 0.00 0.00 68 1005.8
20260505204003 28 230 3.2 11.3 0.00 0.00 0.00 68 1005.9
20260505203503 28 224 4.8 11.3 0.00 0.00 0.00 70 1006.1
20260505203003 27 196 3.2 11.3 0.00 0.00 0.00 70 1006.2
20260505202717 28 200 3.2 11.3 0.00 0.00 0.00 69 1006.1
20260505202003 27 250 3.2 8.0 0.00 0.00 0.00 69 1006.4
20260505201503 27 239 3.2 8.0 0.00 0.00 0.00 69 1006.5
20260505201003 28 216 3.2 11.3 0.00 0.00 0.00 69 1006.6
20260505200503 27 214 3.2 11.3 0.00 0.00 0.00 70 1006.5
20260505200003 27 229 3.2 8.0 0.00 0.00 0.00 70 1006.4
20260505195503 27 202 3.2 12.9 0.00 0.00 0.00 71 1006.6
20260505195003 27 190 3.2 12.9 0.00 0.00 0.00 70 1006.6
20260505194503 27 198 3.2 12.9 0.00 0.00 0.00 72 1006.7
20260505194004 27 192 3.2 12.9 0.00 0.00 0.00 72 1006.7
20260505193503 27 188 3.2 9.7 0.00 0.00 0.00 71 1006.8
20260505193003 27 204 3.2 12.9 0.00 0.00 0.00 71 1006.9
20260505192503 27 215 3.2 12.9 0.00 0.00 0.00 72 1006.8
20260505192003 27 204 4.8 16.1 0.00 0.00 0.00 71 1007.2
20260505191503 26 204 4.8 16.1 0.00 0.00 0.00 72 1006.8
20260505191003 27 231 3.2 16.1 0.00 0.00 0.00 71 1006.8
20260505190503 27 232 3.2 6.4 0.00 0.00 0.00 72 1006.9
20260505190003 26 236 3.2 6.4 0.00 0.00 0.00 72 1007.0